TimeEDT,TemperatureF,Dew PointF,Humidity,Sea Level PressureIn,VisibilityMPH,Wind Direction,Wind SpeedMPH,Gust SpeedMPH,PrecipitationIn,Events,Conditions,WindDirDegrees,DateUTC
12:54 AM,64.9,37.9,37,29.96,10.0,SE,9.2,21.9,N/A,,Clear,130,2013-05-04 04:54:00
1:54 AM,64.0,39.9,41,29.96,10.0,ESE,8.1,-,N/A,,Clear,120,2013-05-04 05:54:00
2:54 AM,62.1,41.0,46,29.95,10.0,ESE,9.2,-,N/A,,Clear,120,2013-05-04 06:54:00
3:54 AM,61.0,43.0,52,29.95,10.0,East,9.2,-,N/A,,Clear,100,2013-05-04 07:54:00
4:54 AM,61.0,45.0,56,29.94,10.0,East,11.5,-,N/A,,Clear,100,2013-05-04 08:54:00
5:54 AM,60.1,44.1,55,29.94,10.0,East,12.7,-,N/A,,Clear,90,2013-05-04 09:54:00
6:54 AM,57.9,44.1,60,29.94,10.0,East,11.5,-,N/A,,Clear,100,2013-05-04 10:54:00
7:54 AM,60.1,42.1,51,29.95,10.0,East,13.8,21.9,N/A,,Partly Cloudy,100,2013-05-04 11:54:00
8:54 AM,61.0,41.0,48,29.95,10.0,ESE,16.1,24.2,N/A,,Scattered Clouds,110,2013-05-04 12:54:00
9:54 AM,60.1,39.0,46,29.95,10.0,ESE,10.4,-,0.00,,Overcast,120,2013-05-04 13:54:00
10:54 AM,62.1,39.9,44,29.96,10.0,ESE,9.2,-,0.00,,Mostly Cloudy,110,2013-05-04 14:54:00
11:54 AM,64.9,39.9,40,29.95,10.0,SE,6.9,-,N/A,,Partly Cloudy,130,2013-05-04 15:54:00
12:54 PM,66.0,41.0,40,29.95,10.0,East,12.7,-,N/A,,Mostly Cloudy,100,2013-05-04 16:54:00
1:54 PM,68.0,43.0,40,29.94,10.0,ESE,8.1,-,N/A,,Clear,110,2013-05-04 17:54:00
2:54 PM,66.9,46.0,47,29.95,10.0,South,6.9,-,N/A,,Clear,170,2013-05-04 18:54:00
3:54 PM,66.9,51.1,57,29.93,10.0,West,9.2,-,N/A,,Scattered Clouds,280,2013-05-04 19:54:00
4:54 PM,64.9,53.1,65,29.92,10.0,West,10.4,-,N/A,,Partly Cloudy,260,2013-05-04 20:54:00
5:54 PM,60.1,51.1,72,29.93,10.0,West,9.2,-,N/A,,Mostly Cloudy,270,2013-05-04 21:54:00
6:54 PM,57.0,52.0,83,29.96,4.0,SW,6.9,-,0.01,Rain,Light Rain,230,2013-05-04 22:54:00
7:01 PM,55.4,51.8,88,29.97,1.5,WSW,10.4,-,0.02,Rain,Heavy Rain,240,2013-05-04 23:01:00
7:18 PM,55.4,51.8,88,29.97,2.5,WNW,5.8,-,0.16,Rain,Heavy Rain,290,2013-05-04 23:18:00
7:32 PM,55.4,53.6,94,29.97,6.0,WNW,4.6,-,0.19,Rain,Light Rain,290,2013-05-04 23:32:00
7:54 PM,55.0,53.1,93,29.97,5.0,Calm,Calm,-,0.20,Rain,Rain,0,2013-05-04 23:54:00
8:07 PM,55.4,53.6,94,29.98,2.5,Calm,Calm,-,0.03,Rain,Rain,0,2013-05-05 00:07:00
8:54 PM,54.0,53.1,97,29.99,6.0,WNW,4.6,-,0.08,Rain,Light Rain,300,2013-05-05 00:54:00
9:54 PM,54.0,53.1,97,30.00,6.0,North,4.6,-,0.08,Rain,Light Rain,360,2013-05-05 01:54:00
10:54 PM,54.0,53.1,97,30.01,5.0,Calm,Calm,-,0.05,Rain,Rain,0,2013-05-05 02:54:00
11:24 PM,53.6,51.8,94,30.00,5.0,North,6.9,-,0.05,Rain,Rain,10,2013-05-05 03:24:00
11:54 PM,54.0,53.1,97,29.99,7.0,NNE,6.9,-,0.09,Rain,Light Rain,20,2013-05-05 03:54:00